Theta_e
328 326 323 321 321 321 320 320 321 321 321 321 321 324 326 327 327 330 333 334 335 334 333 331 330 331 333 335 337 339 340 340 340 340 340 341 340 340 339 340 339 339 338 337 337 336 336 335 334 333 331 330 328 328 329 330 328 328 329 329 328 326 325 323 322 322 321 321 320 318 317 316 316 315 314 313 312 312 311 310 309 304 298 298 300
329 327 324 323 322 321 321 322 321 322 322 321 319 320 323 326 329 331 333 336 337 336 334 333 332 333 334 336 337 339 340 340 340 340 340 340 340 339 339 339 339 338 337 337 336 335 335 333 332 330 329 327 325 325 326 327 327 328 328 327 326 326 324 322 321 322 320 320 319 317 317 316 315 315 314 313 313 312 311 310 309 304 299 300 303
326 327 326 324 323 322 322 323 322 323 324 323 320 319 319 322 328 332 335 338 340 338 336 334 334 334 335 336 338 338 340 340 340 340 340 340 339 338 338 339 338 338 337 336 336 334 333 330 328 326 325 324 324 324 325 326 327 327 327 326 326 326 323 321 321 322 320 319 318 317 317 316 315 315 314 313 312 311 311 310 307 304 299 300 302
325 328 329 326 324 322 322 322 322 324 324 324 322 320 319 320 324 332 338 341 342 341 338 336 335 336 336 337 338 339 340 340 340 340 339 339 339 338 339 339 337 337 336 335 334 332 329 326 324 322 322 323 324 323 324 327 328 327 326 327 327 325 323 322 322 322 321 321 319 318 317 316 316 316 314 313 312 311 311 309 307 303 300 300 300
328 330 330 329 327 323 322 322 323 324 325 324 323 321 319 319 320 328 338 343 344 342 340 337 337 337 337 338 339 339 340 340 339 338 338 338 338 339 339 338 337 337 336 334 332 328 325 324 322 321 322 323 323 322 324 327 328 327 326 326 325 324 323 322 322 322 321 321 321 320 318 316 316 316 314 313 312 311 311 309 307 304 301 300 301
332 333 332 331 330 326 323 323 323 324 325 326 328 327 322 319 319 326 335 342 344 344 341 338 337 338 338 339 340 340 340 339 338 337 337 337 338 339 339 338 337 337 335 331 327 325 323 322 321 321 323 323 321 321 324 326 327 327 326 325 324 324 323 322 322 322 322 321 322 322 320 317 316 315 314 313 312 312 311 309 308 306 302 301 303
334 335 334 333 333 329 325 323 323 324 325 327 332 334 329 323 321 324 333 341 344 345 343 339 338 339 340 341 341 341 340 340 339 338 338 338 339 339 339 338 337 336 331 327 324 324 323 322 320 321 322 321 319 322 325 326 326 326 325 324 323 324 324 323 323 322 322 321 322 322 321 319 317 315 313 313 311 311 311 309 309 307 304 302 304
341 339 337 337 335 331 327 324 324 325 326 328 333 336 334 328 325 327 335 341 344 345 345 341 339 339 341 342 342 342 341 340 339 339 339 339 339 339 338 337 337 333 328 324 324 324 324 322 320 321 322 320 318 321 325 326 324 324 323 323 322 323 323 324 323 322 322 321 321 322 322 320 318 315 313 312 311 311 311 310 309 309 306 305 304
344 342 338 337 335 332 331 329 326 326 329 333 336 337 335 331 329 332 337 341 344 345 346 344 341 340 341 342 343 342 342 341 340 340 340 340 339 338 337 336 335 331 326 324 325 325 324 321 321 322 322 320 318 318 323 325 323 321 320 320 320 321 323 324 324 323 322 322 322 323 322 321 319 317 314 313 313 313 312 310 310 309 308 306 305
342 342 336 335 335 334 333 331 327 325 328 332 336 337 335 333 333 335 339 343 345 345 346 345 343 342 342 343 343 342 342 342 341 341 341 340 338 337 336 334 332 328 325 324 325 325 324 322 322 323 322 321 319 318 319 322 321 319 318 318 319 321 323 324 324 323 323 323 323 323 323 322 321 319 317 316 315 314 312 311 310 309 308 307 306
338 342 338 335 336 335 334 332 329 327 326 328 334 337 337 335 335 337 340 344 346 346 346 346 345 344 344 344 344 343 342 342 342 342 341 339 337 336 335 332 329 327 325 325 325 324 324 323 324 324 323 321 319 318 318 318 318 318 318 319 321 322 323 323 323 323 323 324 324 324 324 323 321 320 318 317 315 313 313 312 311 309 308 307 306
337 341 340 338 337 335 334 333 332 331 330 331 334 337 338 337 336 337 341 344 345 346 346 346 345 345 344 344 344 342 342 342 342 342 340 337 336 335 333 330 328 327 326 326 325 324 324 323 323 324 324 321 319 317 317 317 317 317 318 319 320 322 322 322 322 323 324 324 324 324 324 323 321 319 318 317 315 314 314 312 311 309 308 308 307
337 338 338 341 340 338 336 335 334 333 333 334 335 335 335 336 336 337 339 342 344 345 346 346 346 346 345 344 343 342 342 342 342 341 338 336 335 335 333 331 328 327 327 327 326 326 325 324 324 324 324 322 319 316 315 316 317 318 318 318 319 320 321 322 323 323 323 323 323 323 323 322 320 319 318 317 316 315 314 313 311 310 309 308 308
323 324 328 335 339 340 340 339 338 336 334 335 337 337 335 334 336 338 340 342 344 345 346 346 346 346 345 344 343 343 343 343 341 340 338 337 335 335 333 331 328 327 327 327 326 326 326 325 324 324 324 322 318 314 313 313 315 317 318 318 319 320 322 323 323 323 323 322 322 322 322 321 320 319 318 317 316 315 314 314 312 310 309 308 307
314 314 316 320 325 330 334 336 336 336 333 333 336 338 337 334 336 340 342 342 343 343 344 345 346 346 346 345 344 343 343 342 341 340 338 337 336 335 334 332 329 328 327 326 325 325 325 325 324 324 324 320 316 312 311 310 311 312 313 313 314 316 318 319 320 321 321 321 321 321 320 320 319 319 318 317 316 315 314 313 311 309 308 308 308
315 315 315 315 315 318 322 326 329 330 329 330 332 336 339 337 336 339 342 342 343 343 344 345 345 345 345 345 345 344 343 342 341 340 338 337 336 335 334 332 330 328 326 325 325 325 324 324 324 324 323 320 315 312 311 310 310 309 308 307 308 309 311 313 316 319 321 321 320 320 319 319 318 318 317 317 316 315 314 312 310 309 308 308 308
318 319 319 319 318 317 317 321 325 326 327 331 332 333 337 338 337 338 341 343 343 343 344 344 344 345 345 345 345 344 343 342 341 339 338 337 336 335 334 332 331 329 327 326 325 324 324 324 324 324 323 319 315 313 313 313 311 308 306 305 305 305 306 309 312 316 319 320 320 320 319 319 318 317 317 316 315 314 313 311 310 309 308 308 307
318 319 320 320 320 320 319 320 322 325 329 333 334 333 335 339 339 338 340 343 343 342 343 344 344 344 344 344 344 344 343 342 341 339 338 336 336 335 334 333 331 330 329 327 325 325 325 324 324 323 322 319 316 316 316 315 313 310 308 306 305 304 304 305 308 310 314 316 318 318 318 318 318 317 316 315 314 313 311 310 310 309 308 308 307
316 316 317 318 319 320 320 321 322 325 330 334 336 335 335 338 339 338 339 342 343 343 343 344 345 344 344 343 344 344 343 342 341 339 338 336 336 335 334 333 331 331 330 328 327 326 325 324 324 323 321 319 318 317 317 317 316 315 313 310 309 306 304 303 305 307 310 312 314 314 315 316 317 316 315 313 312 311 310 310 310 309 308 308 306
317 317 316 317 318 318 319 322 324 326 330 334 337 338 336 337 339 339 339 341 343 344 344 344 344 344 344 343 343 344 343 342 340 339 337 336 336 335 335 333 332 331 330 329 328 327 326 325 324 323 322 320 319 318 318 317 317 316 315 315 313 308 305 303 303 305 308 311 312 313 314 315 316 316 314 312 311 310 310 309 309 309 308 307 306
319 320 319 318 320 320 319 320 324 328 330 334 338 339 338 338 339 339 339 341 343 344 344 344 344 344 343 343 343 343 343 342 340 339 337 336 335 335 335 333 332 331 330 330 328 327 326 325 324 323 322 320 319 319 318 317 316 314 313 313 310 307 304 304 304 305 306 307 308 310 311 312 314 314 313 312 311 310 310 309 309 309 308 307 305
320 322 323 323 323 323 322 321 325 329 332 335 339 340 340 340 340 339 339 339 342 343 343 343 344 343 343 343 343 343 342 341 340 339 336 335 335 336 335 333 332 331 331 330 329 327 326 325 324 323 323 321 320 319 318 316 314 312 310 309 308 306 305 305 305 305 305 305 305 305 305 306 309 312 312 312 311 310 309 308 308 308 307 305 304
316 318 321 324 325 325 323 323 326 331 334 336 338 340 341 341 341 341 340 339 340 342 343 343 344 343 343 343 342 342 342 341 340 338 335 335 336 336 335 334 332 331 331 330 328 327 326 325 323 323 322 321 320 318 317 314 312 311 311 312 310 308 307 306 306 306 306 306 306 305 304 303 304 307 309 310 309 309 308 308 307 306 304 302 301
315 315 317 321 324 326 324 322 324 332 337 338 338 339 340 342 342 342 341 340 340 342 343 343 342 343 343 342 342 342 342 341 339 337 335 336 337 335 334 334 332 331 331 329 327 326 325 324 323 322 322 320 319 317 314 311 310 313 315 316 313 310 308 308 307 307 308 308 307 307 305 303 301 302 303 305 305 305 305 305 304 302 300 298 298
317 316 317 319 323 326 326 322 321 328 336 339 339 340 341 342 343 343 342 342 342 342 343 342 340 341 343 342 342 341 341 340 339 336 335 336 337 335 334 333 332 331 330 328 326 326 325 323 322 321 320 318 317 315 312 310 312 315 318 318 316 313 310 308 308 308 309 309 308 307 305 303 301 300 299 299 299 300 300 300 299 298 298 297 298
317 316 316 317 320 322 324 321 319 323 332 336 337 340 341 341 342 342 342 342 342 342 342 341 339 340 341 341 340 340 340 340 338 337 336 336 336 335 334 332 331 331 329 328 326 325 323 322 321 319 318 316 315 313 313 313 315 317 318 318 317 314 311 309 308 309 309 309 309 307 305 303 302 300 298 297 297 297 297 297 297 297 297 297 298
315 315 315 315 315 316 318 317 316 321 331 335 336 339 342 341 341 342 342 342 342 342 342 341 339 339 340 340 339 339 339 339 338 337 336 336 334 333 333 331 330 330 329 327 325 323 322 320 319 318 316 315 314 314 314 316 317 318 318 319 318 316 313 310 309 309 309 309 309 308 306 304 303 301 299 297 297 297 297 297 297 297 297 297 298
313 313 313 313 313 313 314 314 313 318 330 336 337 339 342 342 341 341 341 342 342 342 341 340 339 339 339 339 339 338 339 339 338 335 335 335 334 332 331 331 330 330 328 326 323 322 320 319 317 317 316 316 316 315 316 317 318 318 319 319 318 316 314 310 308 308 309 309 309 308 307 305 303 302 301 299 298 297 297 297 298 298 298 298 298
311 311 311 312 312 311 313 313 312 318 330 337 338 339 340 341 341 341 341 342 342 341 341 340 339 339 339 337 337 338 338 339 337 335 335 335 334 332 332 331 330 330 328 325 322 321 320 318 317 317 318 318 317 317 317 318 318 318 319 319 318 317 315 312 309 308 308 308 308 308 307 305 303 303 303 301 299 298 298 299 300 301 301 302 302
311 310 310 311 311 311 312 311 311 319 330 336 338 340 341 341 341 342 342 343 342 341 341 339 339 339 338 337 336 335 336 337 336 335 335 335 334 333 332 332 331 330 328 324 321 321 320 318 317 317 318 318 318 318 318 318 318 319 319 319 319 318 317 314 311 308 307 307 307 307 306 305 304 303 302 301 300 300 300 301 302 304 304 304 304
310 310 310 311 310 310 311 309 312 322 332 335 337 340 342 342 343 343 343 342 342 341 340 339 339 339 337 335 334 334 335 336 335 332 333 334 334 333 332 331 331 330 327 323 321 320 320 318 317 318 318 319 319 319 319 319 319 319 319 319 318 318 317 315 311 307 306 306 306 306 306 305 304 303 302 301 301 302 303 304 304 304 304 304 304
312 314 317 318 314 311 310 311 316 326 334 337 339 341 342 342 343 343 343 342 342 341 340 340 340 339 338 336 334 334 335 336 333 331 332 334 334 333 332 331 330 328 326 322 320 320 320 319 318 318 318 319 319 320 320 320 319 319 319 318 317 317 316 315 311 307 305 305 305 305 306 305 305 304 303 302 302 304 305 305 305 305 304 304 304
315 319 324 326 323 317 315 317 323 329 334 338 340 341 342 342 342 342 342 343 342 341 341 341 340 339 337 336 335 335 335 334 333 332 333 335 335 334 332 331 330 328 326 322 320 320 320 319 319 319 319 319 320 320 320 320 319 319 318 317 315 315 314 312 307 305 304 303 303 304 305 305 305 305 304 303 303 304 304 305 305 305 305 304 304
324 326 328 329 328 325 323 325 328 332 335 338 340 341 341 341 341 341 342 342 341 341 341 340 339 338 337 336 336 336 335 333 332 332 334 334 334 333 332 330 328 327 325 323 321 320 320 320 319 319 320 320 320 320 320 320 319 319 317 315 314 313 311 308 305 303 302 301 301 302 303 305 306 306 305 304 303 303 303 304 304 304 304 304 304
330 330 330 330 330 329 329 329 330 333 336 338 340 340 340 340 340 341 341 341 340 340 339 338 337 337 337 336 336 335 335 334 333 333 334 334 334 332 331 330 327 325 323 322 321 321 320 320 320 320 320 321 321 321 320 320 320 318 316 315 314 313 311 309 307 305 303 302 301 300 301 303 305 306 305 304 304 303 303 303 303 303 303 303 303
332 332 333 332 332 332 333 334 335 336 337 337 338 338 338 338 339 340 340 340 340 339 337 336 335 335 336 337 336 335 336 336 334 334 334 334 333 332 331 330 328 326 323 321 320 320 320 321 321 321 321 321 321 321 321 321 320 318 316 315 314 312 311 310 309 308 306 305 304 302 301 302 303 304 304 304 304 304 303 303 303 303 303 303 303
333 333 334 334 334 335 336 336 337 337 337 338 338 338 339 339 340 340 340 340 339 338 336 335 334 335 336 337 336 336 336 335 334 333 333 333 333 332 331 329 328 327 325 323 321 320 320 320 320 321 321 321 321 321 322 321 319 317 315 315 314 312 311 310 309 308 307 306 305 305 304 303 303 303 303 304 304 304 304 304 303 303 303 303 303
333 333 333 333 334 335 335 335 336 336 336 336 337 338 339 340 340 340 339 338 338 337 335 335 335 335 336 336 336 335 334 333 332 332 332 332 332 331 331 330 329 328 327 325 323 322 321 321 321 321 321 321 321 321 322 321 319 317 315 315 315 313 311 309 308 307 307 306 306 305 305 305 304 303 302 301 301 302 303 303 303 303 303 303 303
333 333 332 333 334 334 334 334 335 335 334 334 334 335 337 338 339 339 338 337 336 336 335 335 336 336 336 335 336 335 334 333 333 332 332 331 331 330 330 329 329 328 327 326 325 324 323 322 322 322 321 321 321 321 321 321 319 317 315 315 314 314 311 309 308 307 307 307 306 305 305 305 305 304 303 301 301 300 301 301 301 301 301 301 301
330 331 331 331 332 332 332 333 333 332 331 331 332 333 335 336 337 337 337 337 336 336 335 334 335 336 335 334 335 335 334 333 333 332 332 331 331 330 330 329 328 328 327 326 325 325 324 323 323 322 321 320 319 320 321 320 318 316 315 314 314 313 312 310 310 309 308 308 307 306 306 306 306 306 305 305 304 304 303 303 302 301 301 301 301
326 327 328 329 329 330 330 331 331 331 330 329 330 332 333 333 333 334 335 335 334 334 334 333 333 334 334 333 333 334 333 333 332 331 331 330 329 328 328 328 328 328 327 326 325 325 324 324 323 322 322 321 319 319 320 319 317 315 315 314 313 312 312 311 311 310 309 309 308 308 307 307 306 306 306 306 305 305 305 304 303 302 300 299 299
323 324 325 326 327 328 328 329 329 329 329 329 329 330 330 330 330 330 331 332 332 333 332 331 331 332 333 333 333 333 332 331 331 330 330 329 328 327 327 328 328 327 327 326 326 325 325 324 323 323 323 322 320 319 319 318 316 315 315 314 313 312 312 312 311 311 310 309 308 308 307 307 306 306 305 305 304 304 304 303 302 300 298 297 296
321 322 323 324 325 326 326 326 326 326 327 327 327 328 328 328 328 328 329 329 330 330 329 329 329 330 330 331 331 330 330 330 330 330 330 330 329 328 328 328 327 327 327 327 326 325 325 324 323 323 323 322 320 318 318 317 316 315 315 314 313 313 312 312 311 311 310 309 308 307 307 307 306 306 305 304 303 303 303 302 301 300 299 298 298
319 320 320 321 322 322 323 324 324 324 324 324 325 325 325 325 325 325 326 327 327 327 327 327 328 328 328 328 327 327 326 327 327 328 329 329 329 328 328 326 325 325 325 325 325 325 325 324 323 322 322 321 319 318 317 317 316 315 314 314 313 312 312 312 311 311 310 309 308 307 307 307 306 306 305 304 304 303 302 302 301 301 300 300 300
317 317 318 318 318 319 319 320 320 321 321 321 322 322 322 322 321 322 322 323 323 324 324 325 325 325 326 326 326 325 325 325 325 325 326 325 324 324 323 320 317 316 316 316 317 319 320 319 319 319 319 319 318 317 316 316 315 315 314 313 313 312 312 311 311 310 310 309 308 308 307 307 307 306 306 305 304 303 302 302 302 301 301 301 300
316 316 316 317 317 317 317 317 317 318 318 318 318 318 318 318 319 319 319 319 319 320 320 320 321 321 321 321 322 323 323 324 324 324 323 321 320 319 317 315 313 313 313 313 313 314 314 315 315 316 317 317 316 315 314 313 312 312 312 312 312 311 311 310 310 310 309 309 309 308 307 307 307 306 306 305 304 303 302 302 302 301 301 301 300
316 316 316 316 316 316 316 316 316 317 317 317 317 317 317 317 317 317 317 317 317 317 317 318 318 318 318 318 319 319 319 319 319 319 319 319 318 318 318 316 315 314 314 315 314 314 314 314 314 314 314 314 313 312 311 311 310 310 310 311 310 310 309 309 309 309 308 308 308 307 307 307 306 306 305 304 303 302 301 301 301 301 301 301 300
315 315 316 316 316 316 316 315 315 316 316 316 316 316 316 316 316 316 316 316 317 317 317 317 317 317 316 316 316 316 316 316 316 316 317 317 317 317 317 316 315 314 314 314 314 314 314 313 312 312 312 312 312 311 311 310 310 310 310 310 309 309 309 308 308 308 308 307 307 306 306 306 305 305 304 303 303 302 301 300 300 300 300 300 300
313 313 314 314 314 315 315 315 315 315 315 316 316 316 315 315 315 315 315 316 316 316 317 317 316 316 315 314 314 314 314 315 315 315 315 315 316 316 316 315 314 314 314 313 313 313 312 311 311 311 311 311 311 310 310 310 311 311 311 310 309 309 308 308 308 307 307 306 305 305 304 304 303 302 302 302 302 301 300 300 300 300 300 300 299
312 312 312 312 312 312 313 313 314 314 314 315 315 315 315 315 315 315 315 315 315 316 315 316 315 315 314 313 313 314 314 314 314 313 313 313 314 315 315 314 314 313 313 312 312 312 311 311 311 311 311 311 310 310 310 311 311 311 310 310 309 308 308 308 308 307 306 305 304 304 303 303 302 301 301 301 301 300 300 300 300 300 300 300 300
311 311 311 311 311 311 311 311 311 312 312 312 313 313 314 314 314 314 314 314 315 315 315 315 315 314 314 313 314 314 314 314 314 313 313 312 313 313 314 313 313 312 312 312 312 312 311 311 311 311 311 311 311 310 310 310 310 310 310 309 309 308 308 308 308 307 306 305 304 304 303 303 302 302 302 301 301 301 300 300 300 300 300 300 300
Wind_Speed
41 40 40 38 36 34 31 28 25 24 24 25 27 30 32 34 33 31 30 29 29 29 28 28 29 31 31 31 31 30 31 30 29 28 28 27 27 27 26 26 26 25 26 26 26 26 25 25 23 20 18 17 17 18 19 17 16 12 11 15 19 20 18 14 10 9 12 16 17 15 12 13 14 14 14 14 13 13 13 13 13 12 11 10 8
43 42 41 40 38 37 35 32 29 27 26 26 26 29 32 33 33 32 31 30 29 30 30 29 30 31 32 32 32 31 31 31 29 29 29 29 29 28 27 27 26 25 25 26 26 26 26 25 22 19 16 16 16 15 15 14 14 12 12 16 19 19 17 17 14 11 12 16 18 16 15 14 14 14 15 15 14 13 13 13 13 13 12 12 10
44 44 44 43 41 39 38 36 34 33 33 32 30 28 29 31 33 33 32 30 29 30 31 30 30 31 33 33 33 33 32 32 31 30 31 31 30 29 28 27 26 25 25 27 27 27 26 22 18 16 14 13 13 11 11 13 14 13 14 18 19 17 19 20 17 13 12 14 17 17 16 16 14 13 13 14 14 14 13 12 12 12 12 13 12
46 47 46 45 42 40 39 38 38 38 38 37 34 31 29 30 32 33 32 30 30 30 31 32 32 32 33 34 34 34 33 33 32 31 32 32 31 30 29 27 26 26 26 28 28 25 22 17 14 13 12 10 9 8 12 15 15 14 16 18 18 19 21 21 18 16 14 14 15 15 15 15 14 12 14 16 16 16 14 12 12 12 12 12 12
48 49 47 46 45 42 40 40 39 40 40 39 36 34 32 31 32 33 33 32 31 30 32 34 34 33 34 34 34 34 34 33 32 31 31 31 31 30 29 28 27 26 27 27 26 22 16 13 12 11 10 9 7 7 12 16 17 16 18 19 18 20 22 21 20 18 17 15 14 14 15 16 16 15 16 18 18 17 16 13 12 12 12 11 10
50 50 49 48 46 44 41 41 41 41 41 41 39 36 34 33 34 34 34 34 33 32 33 35 35 35 34 34 34 33 33 32 31 30 29 30 30 29 28 28 27 27 26 25 22 18 13 11 11 9 9 8 7 7 12 17 18 17 18 18 18 19 21 22 21 20 19 17 15 15 16 18 19 19 19 20 20 18 16 15 14 14 13 13 12
51 49 49 49 46 44 42 40 41 42 41 41 40 39 37 35 35 35 34 35 35 33 34 35 36 36 35 34 33 32 32 31 30 29 29 28 28 28 28 27 27 25 23 22 20 15 13 13 11 9 9 8 6 6 10 17 19 17 17 18 19 20 21 22 22 22 21 19 18 17 18 19 21 21 21 21 21 19 17 17 17 16 15 15 14
49 49 47 47 45 42 41 40 40 40 39 39 40 41 38 36 36 36 36 37 37 36 35 35 36 36 36 35 34 33 32 32 31 29 28 27 27 27 27 26 25 23 22 22 18 14 14 15 13 9 9 9 7 6 10 16 18 17 17 19 21 21 21 21 22 23 23 22 21 20 20 22 23 23 23 24 24 22 20 19 19 17 16 15 15
40 46 44 43 42 41 40 39 38 37 37 37 39 40 39 37 36 37 38 39 38 38 37 36 36 37 37 37 36 35 33 32 31 29 28 27 26 26 25 24 24 23 23 21 17 14 15 17 14 10 9 9 8 9 11 15 17 17 18 20 21 21 21 21 22 23 24 24 24 23 24 25 26 25 26 27 24 21 18 17 18 18 17 16 16
36 43 42 38 37 37 37 37 35 34 35 37 39 40 39 37 37 38 40 41 40 39 39 38 38 38 39 39 39 37 35 33 31 29 27 26 25 24 23 24 24 23 23 22 19 17 17 17 14 11 10 10 10 11 12 15 17 17 17 19 19 20 20 21 22 23 24 25 26 26 26 28 28 27 26 25 22 19 18 16 17 18 19 19 18
39 41 39 35 34 34 34 34 34 34 35 37 39 40 39 38 39 40 42 42 42 40 40 40 39 39 40 40 41 39 37 34 31 29 27 26 24 22 22 23 24 23 23 22 20 19 18 17 15 14 14 12 11 13 15 16 18 18 18 19 19 19 20 21 22 23 24 26 27 27 29 29 29 28 26 23 21 19 17 16 17 19 22 22 20
40 40 37 34 34 34 33 33 33 33 35 38 39 39 39 39 40 41 43 44 43 42 41 41 40 40 41 42 42 40 38 35 32 29 27 25 23 21 21 23 24 22 22 22 21 20 19 18 17 17 17 15 13 14 16 18 19 20 21 22 21 22 22 22 22 23 24 26 28 29 30 29 29 28 25 23 21 19 17 17 18 21 23 23 22
36 36 35 35 36 35 34 34 34 33 35 38 39 39 39 40 41 42 44 45 45 44 43 42 42 41 42 43 42 41 39 36 33 29 27 25 24 22 21 23 23 21 21 22 21 20 20 19 19 19 19 18 17 16 17 18 19 20 21 22 22 23 23 23 24 24 25 25 27 29 28 28 28 27 24 22 21 20 19 18 19 22 24 24 22
33 31 31 33 35 36 36 36 36 35 35 37 39 40 41 42 42 44 45 45 45 45 45 44 44 43 43 43 42 41 39 36 33 30 27 25 25 23 22 22 22 21 21 22 22 22 21 21 22 23 22 22 20 19 18 19 20 21 22 22 23 23 24 25 26 26 26 25 25 26 26 26 26 24 22 21 21 20 19 17 17 20 21 19 19
33 32 32 32 33 34 36 37 38 37 37 38 40 41 42 43 44 45 46 46 46 47 47 46 45 44 44 43 42 41 40 37 34 31 28 26 26 24 23 22 22 21 22 22 22 23 23 23 24 25 25 24 22 20 19 19 20 22 23 23 23 24 25 26 27 27 26 24 24 24 24 24 23 22 21 20 20 19 17 14 12 13 15 16 18
32 32 32 33 34 35 36 38 39 40 41 42 43 44 44 44 45 46 47 47 47 47 47 47 46 46 45 44 43 42 41 37 34 31 28 27 27 26 25 24 23 23 23 22 22 23 23 23 24 26 26 24 21 19 19 19 20 21 22 22 22 23 24 25 26 26 26 25 25 24 24 23 22 21 21 20 18 18 17 15 13 13 15 18 21
31 30 29 30 32 35 38 39 40 42 44 46 47 47 47 46 46 46 47 48 48 48 48 48 47 47 46 46 45 44 42 38 35 32 29 28 28 28 28 27 25 25 24 23 22 23 23 23 24 25 25 22 20 19 18 19 19 19 19 20 20 21 22 23 25 26 26 26 26 25 25 24 22 21 20 19 17 17 18 18 16 16 18 20 22
32 31 30 29 28 31 36 40 41 42 46 49 50 49 49 48 47 47 48 49 49 49 48 48 48 48 47 46 46 45 43 39 36 34 30 29 30 31 31 30 28 27 26 25 24 23 23 23 24 24 23 21 19 19 18 18 18 18 18 18 19 20 21 22 24 25 25 26 26 26 26 25 24 22 19 18 18 19 20 19 17 18 19 20 21
34 35 35 33 32 32 34 38 43 45 47 50 51 50 50 49 48 47 48 48 49 49 48 48 48 48 47 47 46 45 43 39 38 35 31 31 32 33 33 33 31 30 28 28 27 26 24 24 25 25 22 20 19 18 17 18 19 18 17 18 19 20 20 21 22 22 23 23 24 25 25 25 24 22 20 19 20 20 20 18 17 18 19 19 19
30 33 36 37 37 37 35 37 43 46 48 50 52 51 50 49 49 48 48 48 49 49 48 49 49 49 48 47 47 46 43 41 39 36 32 32 34 34 34 35 34 32 30 29 30 29 27 26 25 24 21 19 18 17 17 18 18 17 17 18 18 18 18 19 20 20 21 22 22 23 24 24 24 22 20 20 21 21 20 19 19 20 20 18 18
27 29 33 35 35 35 34 36 42 46 48 50 51 52 50 50 50 49 48 48 49 50 49 49 49 49 49 48 47 46 44 42 40 36 32 34 36 36 36 36 35 32 31 31 31 31 30 27 25 22 21 19 18 18 18 18 18 17 17 15 14 14 15 17 17 18 19 20 21 22 23 23 23 22 21 21 21 21 20 21 22 22 21 19 18
29 29 32 33 32 30 29 31 38 45 49 50 51 52 51 51 51 50 48 48 50 51 51 50 50 49 49 49 48 47 45 43 40 36 34 36 37 38 37 36 35 33 32 32 32 32 31 27 23 21 20 19 19 18 18 18 17 16 14 13 13 14 15 15 16 17 18 18 19 20 20 21 22 22 21 21 21 21 21 22 22 22 21 20 20
35 34 35 35 33 31 27 26 33 44 50 51 51 52 51 51 51 50 49 49 50 51 51 50 50 50 50 49 48 47 46 44 40 36 36 38 39 39 38 37 35 35 34 33 33 32 30 27 23 21 20 20 19 19 18 17 16 15 13 12 13 14 15 16 16 16 16 16 16 17 17 18 20 20 21 21 21 22 22 22 22 21 21 21 22
40 39 39 39 36 32 29 26 30 40 50 52 52 52 51 51 51 50 49 50 50 51 51 50 49 50 50 50 49 47 46 45 41 37 37 40 41 41 39 37 36 35 34 33 32 32 30 26 23 21 20 20 20 19 18 17 16 15 13 12 13 14 16 17 17 16 16 16 15 14 14 15 17 19 19 20 20 21 21 21 21 21 21 21 21
38 39 40 42 39 35 32 29 30 36 45 50 51 53 52 51 51 51 50 51 51 50 50 50 50 50 50 50 49 48 47 46 42 38 39 42 43 42 40 38 36 35 33 32 31 31 28 25 22 20 20 21 21 20 19 18 17 15 13 13 14 16 17 18 18 18 18 17 16 14 13 13 14 15 16 17 19 20 20 20 20 20 20 20 21
37 39 41 42 42 41 39 36 34 35 41 47 49 52 54 52 51 52 52 53 52 51 50 50 49 50 50 50 49 49 49 47 43 39 41 44 43 41 40 38 36 34 32 31 30 29 26 24 22 21 21 22 22 22 20 19 16 15 14 15 16 17 18 19 20 20 19 18 16 14 12 11 12 14 16 18 19 20 19 19 19 19 20 20 21
35 38 40 41 43 44 45 43 39 36 41 48 50 52 54 53 52 53 54 54 52 51 50 49 49 50 50 50 50 50 50 48 44 41 44 45 43 42 41 39 35 33 31 30 30 29 26 23 22 22 23 24 24 23 21 19 18 16 16 16 16 17 19 20 21 21 20 18 17 15 13 12 14 16 18 19 19 19 18 18 18 18 19 20 22
36 38 39 40 43 45 46 46 42 38 42 50 53 53 54 54 53 54 55 55 54 53 51 50 50 51 51 51 51 51 51 50 46 44 46 47 45 43 42 38 35 32 31 32 32 29 26 25 25 25 25 25 26 25 24 22 21 19 17 17 16 17 19 21 22 23 22 20 19 17 16 15 16 17 18 19 19 18 18 18 17 17 17 18 19
39 41 41 42 44 46 46 46 43 41 43 50 53 53 54 55 54 54 55 55 55 54 52 51 51 51 51 51 51 52 53 52 48 45 45 46 45 44 41 37 34 32 32 33 33 31 29 29 29 29 28 28 29 28 27 25 23 21 19 17 16 17 19 22 24 24 23 22 21 20 19 17 16 17 19 19 18 17 17 18 17 17 16 16 17
40 42 44 45 47 48 48 46 44 42 44 50 52 54 55 55 54 54 54 56 56 54 52 49 48 49 50 50 51 52 52 50 47 43 43 44 45 44 40 37 34 33 33 34 34 33 32 33 33 32 31 31 31 30 28 26 24 22 20 18 17 18 20 22 24 24 24 24 23 21 20 17 16 17 18 19 18 17 17 18 18 18 18 18 18
42 43 45 47 48 48 47 45 42 42 46 51 54 55 56 55 54 53 54 54 53 51 49 46 46 47 47 48 49 50 49 46 43 40 42 44 45 43 40 36 34 34 35 36 37 36 35 35 35 33 32 32 32 30 27 26 24 23 21 19 19 20 22 23 24 24 25 25 24 23 21 18 17 16 17 19 19 18 17 17 18 20 20 19 19
43 42 43 43 43 43 43 42 41 42 47 52 55 56 57 55 53 53 53 52 49 47 46 45 45 45 45 46 48 48 47 46 41 39 43 45 44 40 39 38 35 34 35 38 39 39 38 37 36 34 33 33 32 29 27 26 25 23 21 20 20 21 23 23 23 24 25 26 25 24 22 20 18 17 17 19 20 20 19 20 20 21 22 21 20
44 43 42 41 40 40 40 41 42 45 50 54 56 56 55 55 54 52 51 50 48 45 44 44 44 43 44 46 47 47 46 43 41 42 45 45 42 39 40 39 36 34 36 39 41 41 40 39 37 35 33 31 30 29 28 27 25 23 21 19 18 18 20 21 22 24 25 26 25 25 24 23 21 19 18 20 22 22 21 22 23 24 24 24 22
42 43 42 41 40 40 41 42 43 47 52 56 57 56 54 53 53 52 51 50 48 45 44 43 42 43 44 44 46 47 46 43 43 45 45 41 39 40 40 38 36 36 37 40 43 43 42 40 39 36 33 30 29 28 28 27 25 23 20 16 15 15 17 19 22 24 25 25 26 26 26 25 24 22 20 20 22 24 23 22 23 24 25 25 24
34 36 39 40 41 41 41 43 46 50 54 56 56 55 54 52 51 51 51 50 48 46 44 42 41 43 45 45 45 47 47 48 49 47 40 35 36 39 40 40 40 41 41 43 44 44 43 42 39 36 34 31 29 28 28 27 25 23 19 16 15 16 17 18 19 20 21 22 24 25 26 26 25 24 22 21 22 24 24 23 23 23 24 24 25
25 27 30 33 38 40 40 43 46 50 54 57 57 54 52 51 50 50 49 48 47 44 42 41 41 43 45 47 48 49 50 52 51 44 37 35 37 39 41 43 44 44 45 47 46 45 44 42 39 36 35 33 31 29 28 26 25 22 19 16 15 15 15 15 15 15 16 17 18 19 21 23 24 23 23 23 23 23 24 24 24 24 23 23 23
19 21 21 25 32 37 36 37 39 41 42 47 52 52 51 49 48 47 46 45 43 41 40 42 44 45 47 50 51 50 51 51 47 40 37 37 37 38 41 44 45 45 46 47 47 47 46 43 40 38 37 36 33 31 29 27 25 22 18 16 15 14 14 13 13 13 13 13 12 13 15 17 19 21 22 22 23 23 23 24 24 24 22 21 21
11 14 16 19 26 30 29 29 32 33 30 31 37 44 46 46 43 42 41 40 40 40 42 44 47 50 53 53 51 48 46 44 41 38 38 39 39 40 43 45 46 46 46 46 46 47 45 43 41 40 39 38 36 34 31 28 25 21 19 18 17 16 15 15 15 14 14 12 11 11 11 12 14 17 19 21 21 22 23 23 24 24 23 22 22
4 7 11 14 17 20 21 23 25 26 25 26 31 36 39 38 38 38 38 39 40 43 46 47 48 51 52 50 48 46 43 40 39 38 38 39 39 40 43 47 48 47 45 45 45 45 44 43 43 42 42 41 39 35 32 29 25 21 19 18 17 17 17 18 17 17 16 14 12 12 12 11 10 12 14 15 16 17 19 20 21 22 23 23 24
9 6 5 8 9 10 14 18 20 21 20 22 28 33 35 35 36 37 38 40 43 46 47 48 49 49 47 45 45 46 45 43 41 39 37 37 37 38 42 46 48 47 46 46 45 45 45 45 45 44 43 43 40 37 33 29 25 21 20 19 18 18 18 18 17 16 15 13 13 13 13 13 12 12 13 13 13 14 15 16 17 19 21 22 23
15 13 9 6 5 5 5 7 10 12 13 15 20 26 29 30 31 33 36 40 43 45 45 44 44 45 45 45 46 47 46 44 41 38 36 37 38 39 41 44 46 47 47 47 47 47 48 48 46 43 42 42 41 38 34 29 25 23 22 20 19 19 19 18 17 15 13 12 12 13 13 13 14 15 15 14 14 14 15 16 16 18 19 20 21
19 17 15 12 9 7 6 5 3 2 5 9 13 16 18 20 22 25 29 33 36 38 39 38 38 41 44 45 45 45 46 44 40 38 39 40 40 40 42 43 45 46 46 46 47 50 52 52 48 43 41 43 44 40 34 30 27 26 24 22 21 22 22 21 19 16 15 13 12 12 12 13 14 15 14 13 13 14 16 16 16 17 18 18 18
23 21 18 15 13 10 9 7 6 4 2 3 6 8 10 12 14 16 20 26 30 33 33 32 32 35 40 43 43 44 46 46 44 43 44 45 44 42 42 43 44 45 46 47 47 48 51 54 52 46 43 44 44 39 33 30 28 27 25 24 23 24 24 23 21 19 17 15 14 13 13 14 14 14 14 13 13 14 16 17 17 17 17 16 15
28 26 24 21 18 16 14 11 8 7 6 5 3 2 1 3 4 7 11 17 23 25 26 26 26 28 32 34 35 36 39 43 44 45 47 48 46 45 46 47 47 48 50 50 50 49 51 54 52 48 46 44 40 35 31 29 28 27 27 25 24 24 23 23 21 20 18 17 16 15 15 16 16 16 16 16 15 15 16 17 18 18 17 16 15
30 30 29 28 26 23 21 18 15 13 12 10 9 8 7 6 5 3 2 6 10 12 14 16 17 18 21 24 25 27 30 33 36 39 42 44 45 46 46 45 42 41 42 44 46 48 50 50 49 47 44 38 32 29 28 27 28 29 28 25 24 24 22 21 19 18 18 18 18 18 17 18 19 19 19 19 18 17 17 18 18 19 18 16 15
28 28 29 29 29 29 27 25 23 21 19 18 16 15 14 13 12 10 8 5 2 1 3 5 7 9 11 15 18 21 24 27 30 34 37 38 38 38 36 31 28 28 30 32 34 35 37 37 35 33 30 26 24 23 23 22 23 23 23 23 23 23 20 18 17 18 19 20 21 21 21 20 20 20 20 20 19 18 16 16 17 18 18 17 15
26 26 26 27 27 28 28 27 26 26 25 24 23 22 21 19 18 16 14 12 9 7 5 3 2 4 6 8 10 13 15 18 22 24 25 26 27 27 25 25 24 23 23 22 20 19 20 21 20 18 18 19 21 21 20 18 17 17 18 19 20 19 17 17 17 18 19 20 22 23 23 22 21 20 20 20 20 18 16 15 16 17 17 17 17
26 26 26 25 25 25 25 25 25 25 25 24 23 23 22 21 20 19 17 16 14 12 10 8 5 2 3 4 5 6 6 8 9 8 8 10 12 12 13 16 17 15 12 11 10 10 12 14 15 14 15 16 17 17 17 16 16 16 17 18 18 17 17 18 17 16 16 17 19 21 22 21 21 20 20 20 19 17 15 15 15 15 15 16 17
27 27 27 27 27 26 25 23 23 22 21 20 20 19 19 19 19 19 19 18 17 15 14 12 10 7 4 3 2 2 4 5 7 8 9 7 6 7 9 12 12 11 11 11 10 9 10 12 12 12 13 15 17 17 17 16 16 16 18 18 17 16 17 17 16 15 15 15 15 16 17 17 16 17 18 19 18 16 16 16 16 15 16 17 17
26 27 28 29 28 28 27 25 25 23 22 20 18 17 16 15 15 15 15 15 16 16 15 15 14 12 9 7 7 7 7 9 12 14 13 12 12 11 12 13 13 12 11 10 9 9 10 10 11 13 15 16 17 17 16 16 16 17 18 18 17 17 18 17 16 15 15 14 13 13 13 12 11 12 13 15 16 16 17 17 17 17 18 18 18
24 25 26 27 27 27 27 26 26 25 24 23 22 20 19 17 16 15 14 13 13 13 13 14 15 13 8 7 7 8 8 9 11 12 11 11 12 13 13 13 13 11 11 11 11 12 11 11 12 14 14 14 13 13 13 13 13 15 17 18 18 19 19 18 16 16 16 14 13 12 12 11 11 10 11 12 14 14 15 16 17 18 19 19 20
Wind_Direction
211 210 208 206 207 211 215 215 215 218 224 229 233 233 232 232 230 227 225 224 225 228 228 225 221 218 218 220 221 223 224 225 228 232 237 241 245 248 251 254 257 259 261 264 267 270 273 277 281 281 281 280 275 266 261 258 256 249 234 221 214 214 212 203 204 208 204 209 215 216 213 211 218 224 223 226 232 241 252 258 257 253 244 237 229
216 215 211 209 210 213 217 219 218 219 226 232 236 236 235 235 233 230 227 225 225 228 230 228 224 221 220 221 223 225 227 228 230 233 237 241 245 249 253 255 257 260 262 265 269 273 277 279 280 278 275 274 274 264 251 244 240 229 208 197 204 213 203 192 202 209 200 203 207 209 211 211 219 225 225 228 232 241 254 258 259 254 242 235 229
221 219 217 214 213 216 219 222 222 221 225 231 236 238 240 238 235 231 229 228 227 229 231 230 228 224 222 222 224 226 229 230 232 235 238 241 245 249 253 255 258 261 264 268 272 275 277 276 274 274 271 271 275 258 224 219 227 221 203 198 206 209 195 192 205 212 203 204 209 211 210 211 219 227 231 234 235 242 253 260 261 252 238 233 227
221 220 219 218 218 217 219 221 223 223 224 227 231 236 240 241 238 233 229 230 230 231 232 232 231 228 224 224 224 226 228 230 233 236 239 242 246 249 252 256 259 262 266 270 273 273 270 265 264 265 259 260 269 240 204 206 217 213 204 205 206 198 193 197 207 214 213 212 218 223 218 215 221 226 230 234 234 239 247 253 254 247 233 226 221
221 220 220 221 220 220 220 221 223 224 225 225 227 232 236 239 240 234 229 230 232 232 232 232 232 230 227 225 225 226 228 230 232 236 240 243 246 249 253 256 259 263 267 270 269 264 256 249 251 249 237 237 252 236 205 200 208 209 204 202 198 192 195 202 208 216 221 221 227 232 224 220 224 227 230 232 232 236 240 241 242 240 232 222 213
219 219 221 222 222 222 223 223 223 225 226 225 226 228 231 235 237 234 229 230 231 231 232 232 232 232 230 228 228 229 230 231 233 236 239 243 245 249 253 256 260 265 266 263 256 248 237 230 231 226 218 219 232 234 208 198 201 205 199 195 191 190 196 202 208 217 223 226 234 238 232 228 226 226 228 230 234 240 245 241 236 232 229 224 215
220 219 221 222 223 223 224 226 227 228 228 228 229 229 228 231 234 232 229 229 230 231 232 232 233 233 233 232 233 234 233 233 234 235 239 242 246 249 252 256 262 263 258 249 240 229 220 218 213 204 207 207 205 215 203 194 195 196 192 187 185 190 197 202 208 216 222 227 233 239 242 239 233 228 228 229 231 239 246 246 243 237 231 227 223
218 218 220 222 223 223 224 228 230 231 231 231 231 231 229 230 232 230 228 229 230 231 233 234 235 235 235 235 237 238 237 235 234 235 237 241 245 249 252 256 260 256 244 235 228 219 215 214 205 195 204 204 190 190 191 188 189 188 186 185 186 193 200 205 210 217 223 228 232 237 241 241 237 231 226 223 224 231 239 243 247 249 246 239 232
218 217 220 223 225 226 226 228 231 232 233 232 231 231 231 231 230 230 228 228 230 232 233 236 237 236 235 236 238 239 238 236 235 234 237 241 246 249 251 256 255 245 232 225 220 218 217 213 204 200 210 210 200 193 187 185 188 187 185 187 192 197 203 208 214 219 223 227 231 235 237 238 238 233 226 226 231 238 243 245 249 252 251 250 245
225 219 221 224 226 227 228 230 232 233 235 235 233 233 232 231 230 230 229 229 230 231 233 236 238 237 235 236 237 238 238 237 236 235 239 244 247 248 250 252 247 233 223 219 218 219 218 216 214 216 221 221 215 209 199 192 191 190 191 195 200 204 207 211 216 220 223 227 230 234 235 236 236 236 235 238 242 242 241 244 250 247 242 243 243
228 222 220 222 224 226 228 231 233 234 235 237 236 234 233 231 230 231 230 230 231 231 232 234 237 237 237 237 238 238 238 237 236 235 239 244 243 243 246 247 239 226 218 218 221 224 223 220 221 227 231 229 223 219 216 207 199 197 200 204 209 214 216 219 222 224 227 231 236 238 238 237 236 237 239 240 239 238 240 246 249 243 239 239 239
225 224 222 223 225 227 229 232 234 237 238 238 237 236 234 233 232 231 231 230 231 231 231 233 236 237 237 238 239 239 239 238 237 235 238 241 240 239 242 243 237 227 222 223 226 229 228 224 225 231 236 238 235 230 227 221 213 209 211 213 217 222 228 232 236 237 237 241 244 243 240 238 237 237 238 238 236 237 239 243 246 244 244 244 245
222 224 225 226 227 229 231 233 235 238 241 241 240 239 237 235 233 232 232 231 231 231 231 232 234 237 238 239 238 239 239 238 236 235 236 239 238 236 238 240 237 231 229 231 232 233 232 230 231 236 240 242 241 238 236 232 228 224 224 226 230 233 237 241 245 248 250 252 251 248 244 240 239 242 245 242 236 231 232 239 246 245 245 249 253
224 226 227 227 229 231 232 234 235 238 242 244 243 241 239 238 236 233 233 232 231 231 232 232 233 236 238 239 238 238 238 237 235 234 235 237 236 235 238 239 236 234 235 237 237 237 237 236 236 239 242 241 239 237 237 237 236 235 236 238 240 241 243 244 246 249 251 251 251 251 251 249 250 255 254 247 238 233 236 246 250 246 249 257 261
229 232 233 233 234 234 234 236 238 239 243 246 246 244 241 240 237 234 232 232 231 232 232 233 234 235 237 239 238 238 238 237 234 232 234 236 235 236 238 237 235 235 236 238 238 239 240 239 237 238 239 237 235 236 237 236 235 235 236 238 240 241 243 245 246 248 247 246 247 250 252 254 258 261 257 251 246 243 246 257 261 256 257 257 252
228 230 234 238 239 240 240 240 240 241 243 245 245 245 243 240 238 235 233 232 232 233 233 234 235 236 237 237 237 237 237 236 233 231 232 233 234 236 237 235 234 234 234 235 235 235 237 236 234 233 232 231 231 233 235 236 236 235 235 235 237 238 240 242 243 245 245 243 243 245 248 252 257 260 257 253 249 243 242 243 242 241 243 243 242
222 225 231 236 241 244 244 242 241 242 242 242 242 244 244 242 239 236 233 232 232 232 233 234 235 236 236 236 236 236 237 236 233 230 231 231 233 236 235 233 233 235 235 235 234 233 234 233 231 228 225 224 227 231 234 236 238 238 237 238 239 240 240 240 240 241 241 241 242 243 246 248 251 254 254 250 244 238 234 234 233 233 235 238 241
226 230 232 238 244 249 248 244 243 242 241 240 240 241 242 241 239 237 235 233 233 233 233 234 234 235 236 237 237 237 236 235 232 229 230 233 235 237 235 233 233 235 237 237 237 238 237 233 230 227 222 220 224 229 234 239 242 242 242 243 245 245 244 243 242 241 240 241 242 244 246 248 247 246 244 240 237 237 239 243 244 240 238 241 246
237 239 239 242 247 253 254 249 244 242 241 239 239 239 240 240 239 238 237 235 235 235 234 234 234 235 237 238 238 237 236 234 231 229 230 233 236 237 235 234 234 235 238 239 239 241 241 236 231 227 222 221 224 229 234 239 242 243 243 243 244 245 246 247 247 246 244 244 246 247 248 248 245 240 236 232 232 238 244 248 248 244 243 247 250
239 242 243 246 248 253 257 254 247 243 241 239 237 236 238 240 239 238 236 235 235 235 235 235 235 236 236 237 237 236 235 233 230 228 232 236 236 236 235 234 234 235 239 240 240 242 242 237 231 227 224 224 226 229 233 237 241 241 241 242 245 246 247 248 248 248 247 248 249 249 249 248 245 241 235 230 231 236 240 240 240 242 246 249 250
234 237 241 245 247 250 257 259 251 244 241 239 236 235 236 238 238 238 237 235 234 234 235 236 235 236 236 236 235 235 235 233 229 229 234 237 235 235 235 235 235 236 240 244 243 243 243 239 233 230 229 229 231 231 233 236 238 239 240 242 243 242 242 243 245 246 246 247 247 248 248 248 246 242 237 234 235 237 236 235 237 241 246 250 250
230 235 239 243 246 248 255 263 257 247 240 237 234 233 234 235 236 237 237 235 234 234 234 234 234 234 235 235 234 234 234 231 229 232 238 237 235 235 235 236 237 237 241 245 244 243 242 240 236 234 234 234 235 236 236 236 235 235 237 235 231 230 232 234 237 239 241 243 244 245 246 247 245 242 238 236 236 234 232 233 236 242 248 252 252
232 236 239 243 248 248 251 264 264 249 239 236 234 233 233 233 233 234 234 234 234 233 232 232 231 231 232 233 233 233 233 230 229 235 239 236 234 235 235 235 237 239 242 246 245 243 242 239 236 236 237 238 239 238 236 233 231 231 232 231 229 229 230 231 233 234 236 239 241 242 244 245 244 240 237 236 236 235 234 236 240 245 250 252 253
230 233 237 242 248 250 251 263 269 253 238 233 233 232 232 231 231 232 232 233 232 231 229 229 229 229 230 231 231 231 231 229 230 237 239 235 233 233 233 233 236 239 243 247 245 241 241 238 236 236 236 236 237 236 232 228 227 227 228 231 233 233 233 234 235 235 235 236 238 240 242 242 242 241 239 238 239 239 239 240 243 248 251 251 251
228 231 236 240 245 251 253 262 272 262 243 233 230 229 229 228 229 230 231 231 230 228 227 227 229 229 229 230 231 232 231 229 229 235 236 233 233 232 230 232 235 239 244 245 242 238 238 237 235 234 233 232 231 229 225 223 224 225 227 231 236 238 239 240 239 239 240 240 241 241 241 241 243 242 238 237 238 239 239 240 242 245 247 247 246
231 233 238 242 246 251 255 261 271 268 251 239 235 232 229 228 229 230 229 228 228 226 224 226 229 229 229 231 232 233 231 229 229 231 230 229 230 230 228 229 233 238 243 243 238 234 232 231 230 227 224 224 224 222 218 217 219 222 226 232 238 242 243 243 242 242 243 244 245 245 243 241 239 237 234 232 233 235 236 237 239 241 243 245 244
238 239 243 247 249 252 256 261 268 268 252 240 235 232 229 229 229 229 228 227 225 223 223 226 229 229 229 231 233 233 232 229 228 229 227 224 224 224 225 226 229 234 238 236 231 227 223 221 221 219 217 218 218 216 213 213 216 221 227 234 239 242 243 244 246 247 247 248 249 249 246 239 232 230 230 230 232 233 233 233 236 239 242 242 242
248 249 250 252 254 256 258 261 266 266 253 239 233 230 227 226 227 229 230 228 225 222 222 226 228 229 230 231 231 232 231 229 228 228 226 223 220 218 220 223 227 232 235 231 225 220 215 213 212 210 211 213 211 209 210 213 218 223 229 234 237 239 240 241 243 244 244 245 246 245 242 237 232 229 230 231 231 231 232 233 233 233 234 235 237
254 256 256 256 257 258 260 261 264 262 250 237 232 231 229 229 229 231 233 233 232 229 228 229 230 230 230 231 232 231 229 228 229 229 227 225 222 219 220 225 231 236 236 230 223 216 211 209 207 207 208 211 210 210 213 217 222 227 232 235 238 239 239 238 238 239 239 239 240 239 239 239 235 230 229 230 230 229 230 231 227 222 223 227 232
255 258 258 258 258 259 259 260 262 258 246 236 231 230 228 229 230 231 232 232 233 234 235 236 237 235 233 235 237 237 235 234 232 229 228 228 225 222 224 229 237 240 235 226 220 217 212 208 207 208 211 214 215 217 219 222 227 232 236 240 244 244 243 240 239 239 238 238 239 240 240 239 234 229 227 228 226 224 225 227 225 222 224 230 235
253 254 254 255 255 256 256 256 256 252 242 235 231 228 225 225 226 228 230 230 231 232 235 237 240 239 239 241 241 239 239 240 237 234 233 230 225 222 223 228 236 239 232 222 217 215 214 211 211 212 214 217 220 222 225 228 231 235 240 244 248 249 246 241 239 238 237 238 239 239 238 237 234 231 228 225 222 218 218 223 228 229 232 236 242
245 246 248 249 249 248 248 249 251 246 237 229 226 225 224 223 222 224 227 229 230 232 234 236 238 240 241 244 243 239 238 237 236 237 236 230 225 223 224 227 232 235 229 221 217 216 216 215 215 215 216 219 222 225 227 231 234 237 241 245 248 248 245 241 239 238 237 238 238 238 238 237 236 233 228 223 221 221 222 227 233 235 237 239 243
242 244 247 249 248 244 244 246 246 241 233 227 224 223 222 222 223 224 226 227 229 230 232 235 238 241 243 245 244 243 241 239 236 235 232 227 225 225 225 226 230 231 226 220 218 217 217 217 218 219 220 222 224 226 228 232 235 238 241 243 244 244 242 240 237 236 236 237 238 239 240 239 239 237 230 224 224 227 230 233 233 234 236 239 242
241 245 249 252 250 247 246 245 241 236 230 227 225 223 223 225 226 226 226 226 227 229 230 232 236 240 242 243 243 243 243 241 239 235 229 225 226 226 222 221 225 228 227 224 221 219 218 219 219 220 222 223 226 228 230 232 235 237 236 235 233 233 231 229 228 230 232 233 234 236 237 237 238 237 232 228 229 233 235 234 231 229 232 237 241
235 240 245 248 248 246 244 242 239 234 229 225 224 224 225 226 226 227 228 228 228 229 230 232 236 238 238 238 240 242 241 241 239 232 224 223 226 224 219 218 220 221 222 223 222 221 221 221 221 221 223 224 226 228 230 232 234 233 229 224 222 220 218 218 221 224 227 229 231 232 232 231 231 232 232 233 235 237 238 238 235 234 235 239 243
227 233 236 238 237 234 231 229 227 227 227 226 226 226 226 226 226 227 228 229 230 232 234 235 237 238 236 234 236 239 241 241 238 229 220 221 223 220 217 217 219 220 220 219 219 220 222 223 223 224 225 226 226 228 230 232 233 231 225 220 219 218 214 213 214 217 220 223 224 224 224 224 224 227 231 236 239 240 242 243 244 244 245 245 247
209 217 222 226 225 222 220 218 216 215 218 221 224 225 225 225 226 227 228 230 232 235 239 239 237 236 235 233 233 235 238 238 233 224 220 222 222 220 219 220 221 222 222 220 220 221 223 224 225 226 227 228 228 227 229 231 230 227 222 221 223 224 222 218 214 214 216 216 213 212 216 219 221 224 229 234 237 239 242 244 247 249 250 248 246
191 202 210 219 221 221 222 223 220 217 218 220 223 224 225 224 226 229 233 236 237 239 242 241 238 234 233 231 229 229 232 231 226 221 221 223 222 221 221 222 222 224 225 224 223 223 224 225 226 227 227 228 228 227 228 228 225 221 220 222 225 226 227 224 221 219 219 216 216 217 216 215 217 222 227 230 232 235 238 242 245 247 247 245 242
147 191 210 223 229 231 235 237 234 233 236 236 231 228 226 227 230 234 237 239 241 242 242 240 236 231 229 227 227 226 225 224 223 222 222 223 223 222 222 222 224 225 226 227 226 225 224 224 226 227 228 228 227 226 227 226 222 217 218 222 223 224 224 223 222 222 222 222 224 226 224 221 219 222 225 227 229 231 235 238 241 244 246 246 247
92 118 178 214 228 236 243 245 244 247 251 250 241 234 230 229 230 233 236 238 238 237 233 229 227 226 226 227 229 229 225 221 220 221 221 222 224 224 224 224 225 226 227 228 227 225 223 224 225 226 228 229 228 226 225 224 220 215 217 220 221 221 224 226 226 227 230 233 233 232 231 232 231 229 231 234 236 238 241 242 243 245 248 250 253
83 91 105 130 150 162 188 217 236 247 253 249 239 234 232 231 231 233 235 236 235 235 233 230 228 230 232 234 234 233 228 223 222 223 222 223 226 229 227 226 226 227 229 229 228 225 223 223 225 225 227 229 229 227 224 220 215 215 219 220 219 221 225 228 229 231 234 239 241 239 238 240 239 238 241 244 246 248 247 246 248 250 251 252 253
74 79 84 91 99 107 110 110 117 230 242 237 233 232 234 237 236 235 235 235 235 236 237 235 230 228 230 232 231 228 224 223 224 227 228 228 230 233 232 230 229 229 231 231 230 227 225 224 223 222 224 228 228 225 221 217 214 216 220 220 220 224 227 229 230 232 234 237 240 240 242 244 243 241 242 243 246 247 245 243 246 247 246 246 247
66 69 71 74 77 79 82 89 97 109 145 199 221 230 237 241 241 239 238 237 237 237 238 239 235 229 228 227 225 222 221 220 222 226 230 231 230 231 233 234 233 234 235 234 232 230 228 228 225 221 223 228 229 223 218 217 217 220 222 223 224 227 229 230 233 234 235 236 237 235 236 241 241 240 238 238 241 246 245 242 241 240 238 239 243
66 67 67 68 70 72 75 80 86 88 85 87 103 137 209 242 244 238 235 236 239 240 242 243 243 240 236 234 232 229 227 225 223 223 227 229 228 228 229 229 229 230 233 233 231 229 230 231 229 225 226 229 229 223 217 217 220 223 224 225 228 230 229 230 234 237 238 239 238 235 235 237 239 240 240 239 242 248 247 242 239 237 236 238 243
65 67 68 68 69 71 72 73 74 75 74 72 74 75 71 66 68 84 186 225 238 244 245 247 250 252 252 253 253 251 247 242 237 233 231 230 227 225 224 225 226 227 228 228 227 227 228 229 229 229 229 230 228 222 217 217 221 222 222 224 230 234 231 229 232 237 240 242 243 243 242 240 240 242 242 241 243 248 248 243 239 237 236 238 244
64 65 67 68 68 68 69 69 69 71 71 72 74 75 74 72 72 72 75 82 87 254 257 258 262 265 267 268 267 265 263 261 255 248 242 238 235 234 235 237 238 235 234 234 233 233 234 233 232 230 229 225 219 214 212 213 216 216 217 222 230 235 236 233 233 236 241 246 248 248 246 243 242 242 241 240 243 247 247 242 239 238 238 240 245
64 65 66 68 69 69 69 69 68 68 67 68 69 70 69 68 67 67 67 68 69 67 58 31 324 277 270 273 274 273 271 267 261 256 253 251 251 252 254 252 247 241 239 239 239 240 237 229 219 210 205 202 200 200 200 204 209 211 214 220 225 227 227 228 229 234 243 250 251 249 246 244 242 239 236 236 240 243 243 241 241 241 240 242 248
62 62 62 63 65 65 66 67 68 68 67 67 68 67 65 63 62 61 61 61 62 64 60 48 29 328 258 260 276 282 271 256 249 245 239 237 237 236 233 233 231 227 218 207 199 199 201 196 187 182 183 189 194 195 197 204 214 218 221 224 225 223 222 223 226 234 245 251 251 248 245 244 243 240 235 234 236 239 239 239 238 238 238 243 248
62 62 62 61 59 59 58 59 60 62 62 63 66 66 66 64 63 62 61 60 60 61 59 52 48 55 79 102 113 147 161 147 126 113 113 120 134 154 172 183 185 176 166 163 162 165 171 179 185 189 191 194 200 204 210 218 227 230 230 230 228 224 222 223 228 236 244 247 246 244 241 240 239 236 233 230 230 230 229 230 231 235 241 246 249
61 62 62 62 61 61 60 58 58 58 57 57 59 58 57 57 56 54 54 56 58 59 57 51 50 59 81 105 115 124 132 121 105 97 94 93 97 118 145 156 156 156 161 168 172 171 173 181 190 194 196 202 211 219 225 231 233 232 231 231 228 226 227 229 234 240 242 239 234 233 231 229 227 225 224 224 224 225 227 231 234 238 242 246 248
63 63 63 62 61 61 60 60 60 60 59 59 59 58 56 55 53 48 45 43 45 50 54 54 54 61 85 127 136 124 118 116 113 111 110 107 105 114 130 143 150 158 167 175 179 182 185 188 191 194 201 213 227 233 232 230 228 227 229 232 234 234 235 236 238 241 240 234 228 229 230 230 227 223 221 223 226 229 235 240 243 246 249 252 252